CZ-6A DEB, 56281

Orbit data source: Space-Track

CZ-6A DEB, 56281 is space debris in SSO originally from a launch on Fri, 11 Nov 2022 UTC launched from the Taiyaun Space Center, China (TSC). Debris objects in space refer to the collection of defunct objects orbiting the Earth. Examples of debris include non-operational satellites, rocket bodies, and fragments generated from explosions, collisions, or faulty payload assembly.

Loading next visibility...
Identifier
56281, 2022-151ACZ
Orbit
SSO
Country
Flag of CNCN / PRC
Related business
Manufacturer
SAST
Mission
Spacecraft
Bus & Motor
Unknown
Mass
Unknown
Launch date (UTC)
2022-11-11 (3 years ago)
Launch vehicle
Unknown
Launch site
Taiyaun Space Center, China (TSC)
Object type
Payload
Rocket body
Debris
Shape & HBR
Unknown shape, 0.1 m
Radar Cross Section
Small (<0.1 m²)

Expand to show TLE details & history
Last TLE update: 1 day ago

TLE from 1 day ago
0 CZ-6A DEB
1 56281U 22151ACZ 25349.47681995  .00001869  00000-0  99606-3 0  9992
2 56281  98.8219 344.5033 0056511 135.0588 225.5179 14.13738615141030
Epoch: 2025-12-15T11:26Z
TLE epoch observation values (Epoch: 2025-12-15T11:26:37.243Z)
Latitude
-0.00007°
Longitude
88.4733°
Altitude
878.239 km
Speed
7.398 km/s
True Right ascension
22h 58m 00s
True Declination
0° 00' 00"
Sunlit
Object was in daylight at epoch
Visualization orbit readout
Latitude
Unknown
Longitude
Unknown
Altitude
Unknown
Speed
Unknown
Apparent Right ascension
Unknown
Apparent Declination
Unknown
Sunlit
N/A
Visualization observer readout
Local Sidereal Time
11:31:51
Azimuth
Unknown
Elevation
Unknown
Doppler factor
Unknown
Orbital elements
Apogee altitude
884.59 km
Perigee altitude
802.967 km
Semi-major axis
7,221.916 km
Eccentricity
0.00565
Inclination
98.8219°
RAAN
344.5033°
Arg. of periapsis
135.0588°
True anomaly
225.05816°
Mean anomaly
225.5179°
Eccentric anomaly
225.2878°
Mean motion
3.53643 °/min
Orbital period
101.8 mins
BSTAR
0.00099606
Loading maneuver chart data...
Computing Atmospheric mass density...
Loading historical data...
Loading historical data...
Loading historical data...
Loading historical data...
Loading historical data...
Loading historical data...
Loading historical data...

Documentation

Showing up to 5 results
|